• In Hungary
  • List of Countries
  • For 7 days
  • Water Temperature
  • Satellite Maps
  • Weather Map
  • News
  • Weather Widgets
  • user-avatar
    Login

    Hourly Weather Lubango

    Today, 22 July, Sunday

    Time Temperature Precipitation Wind Pressure Humidity
    00:00 +12°C° 0 mm 1 mps 609 mmHg 36%
    01:00 +11°C° 0 mm 1 mps 609 mmHg 34%
    02:00 +11°C° 0 mm 1 mps 609 mmHg 35%
    03:00 +10°C° 0 mm 1 mps 609 mmHg 35%
    04:00 +10°C° 0 mm 1 mps 608 mmHg 36%
    05:00 +9°C° 0 mm 2 mps 609 mmHg 37%
    06:00 +9°C° 0 mm 2 mps 609 mmHg 38%
    07:00 +9°C° 0 mm 2 mps 609 mmHg 39%
    08:00 +14°C° 0 mm 2 mps 611 mmHg 33%
    09:00 +18°C° 0 mm 3 mps 612 mmHg 26%
    10:00 +22°C° 0 mm 3 mps 614 mmHg 20%
    11:00 +24°C° 0 mm 3 mps 614 mmHg 18%
    12:00 +26°C° 0 mm 3 mps 614 mmHg 15%
    13:00 +26°C° 0 mm 2 mps 614 mmHg 14%
    14:00 +26°C° 0 mm 2 mps 614 mmHg 13%
    15:00 +26°C° 0 mm 2 mps 613 mmHg 13%
    16:00 +26°C° 0 mm 2 mps 613 mmHg 13%
    17:00 +23°C° 0 mm 2 mps 612 mmHg 18%
    18:00 +20°C° 0 mm 1 mps 611 mmHg 22%
    19:00 +15°C° 0 mm 1 mps 610 mmHg 27%
    20:00 +15°C° 0 mm 1 mps 610 mmHg 30%
    21:00 +14°C° 0 mm 1 mps 610 mmHg 32%
    22:00 +13°C° 0 mm 1 mps 610 mmHg 34%
    23:00 +13°C° 0 mm 1 mps 610 mmHg 34%

    Tomorrow, 23 July, Monday

    Time Temperature Precipitation Wind Pressure Humidity
    00:00 +12°C° 0 mm 1 mps 610 mmHg 34%
    01:00 +12°C° 0 mm 1 mps 610 mmHg 34%
    02:00 +12°C° 0 mm 1 mps 610 mmHg 34%
    03:00 +11°C° 0 mm 1 mps 609 mmHg 34%
    04:00 +11°C° 0 mm 1 mps 609 mmHg 34%
    05:00 +10°C° 0 mm 2 mps 609 mmHg 35%
    06:00 +10°C° 0 mm 2 mps 610 mmHg 37%
    07:00 +10°C° 0 mm 2 mps 610 mmHg 39%
    08:00 +13°C° 0 mm 3 mps 611 mmHg 33%
    09:00 +18°C° 0 mm 3 mps 613 mmHg 27%
    10:00 +22°C° 0 mm 4 mps 614 mmHg 21%
    11:00 +23°C° 0 mm 4 mps 614 mmHg 19%
    12:00 +25°C° 0 mm 3 mps 614 mmHg 17%
    13:00 +27°C° 0 mm 3 mps 614 mmHg 14%
    14:00 +27°C° 0 mm 2 mps 614 mmHg 14%
    15:00 +27°C° 0 mm 2 mps 613 mmHg 13%
    16:00 +27°C° 0 mm 2 mps 613 mmHg 13%
    17:00 +24°C° 0 mm 2 mps 612 mmHg 17%
    18:00 +21°C° 0 mm 1 mps 611 mmHg 22%
    19:00 +16°C° 0 mm 1 mps 610 mmHg 27%
    20:00 +16°C° 0 mm 1 mps 610 mmHg 28%
    21:00 +15°C° 0 mm 1 mps 610 mmHg 30%
    22:00 +14°C° 0 mm 1 mps 611 mmHg 31%
    23:00 +14°C° 0 mm 1 mps 610 mmHg 31%

    Day after tomorrow, 24 July, Tuesday

    Time Temperature Precipitation Wind Pressure Humidity
    00:00 +13°C° 0 mm 2 mps 610 mmHg 31%
    01:00 +13°C° 0 mm 2 mps 610 mmHg 31%
    02:00 +12°C° 0 mm 2 mps 610 mmHg 33%
    03:00 +12°C° 0 mm 2 mps 610 mmHg 35%
    04:00 +12°C° 0 mm 2 mps 609 mmHg 37%
    05:00 +12°C° 0 mm 2 mps 609 mmHg 38%
    06:00 +10°C° 0 mm 3 mps 609 mmHg 40%
    07:00 +10°C° 0 mm 3 mps 610 mmHg 41%
    08:00 +14°C° 0 mm 3 mps 611 mmHg 35%
    09:00 +18°C° 0 mm 4 mps 613 mmHg 29%
    10:00 +22°C° 0 mm 4 mps 614 mmHg 23%
    11:00 +23°C° 0 mm 4 mps 614 mmHg 20%
    12:00 +25°C° 0 mm 3 mps 614 mmHg 18%
    13:00 +27°C° 0 mm 3 mps 614 mmHg 15%
    14:00 +27°C° 0 mm 2 mps 614 mmHg 14%
    15:00 +27°C° 0 mm 2 mps 613 mmHg 14%
    16:00 +27°C° 0 mm 2 mps 613 mmHg 13%
    17:00 +24°C° 0 mm 2 mps 612 mmHg 16%
    18:00 +21°C° 0 mm 1 mps 611 mmHg 20%
    19:00 +18°C° 0 mm 1 mps 610 mmHg 23%
    20:00 +16°C° 0 mm 1 mps 610 mmHg 24%
    21:00 +15°C° 0 mm 1 mps 610 mmHg 26%
    22:00 +15°C° 0 mm 1 mps 610 mmHg 28%
    23:00 +14°C° 0 mm 2 mps 610 mmHg 29%

    25 July, Wednesday

    Time Temperature Precipitation Wind Pressure Humidity
    00:00 +14°C° 0 mm 2 mps 610 mmHg 31%
    01:00 +13°C° 0 mm 2 mps 610 mmHg 32%
    02:00 +13°C° 0 mm 2 mps 609 mmHg 33%
    03:00 +13°C° 0 mm 2 mps 609 mmHg 35%
    04:00 +12°C° 0 mm 2 mps 609 mmHg 36%
    05:00 +11°C° 0 mm 3 mps 609 mmHg 35%
    06:00 +11°C° 0 mm 3 mps 609 mmHg 34%
    07:00 +11°C° 0 mm 3 mps 609 mmHg 33%
    08:00 +14°C° 0 mm 3 mps 611 mmHg 28%
    09:00 +18°C° 0 mm 4 mps 612 mmHg 22%
    10:00 +22°C° 0 mm 4 mps 614 mmHg 17%
    11:00 +24°C° 0 mm 3 mps 614 mmHg 15%
    12:00 +26°C° 0 mm 3 mps 614 mmHg 13%
    13:00 +28°C° 0 mm 2 mps 614 mmHg 12%
    14:00 +28°C° 0 mm 2 mps 613 mmHg 11%
    15:00 +28°C° 0 mm 2 mps 613 mmHg 11%
    16:00 +28°C° 0 mm 2 mps 613 mmHg 11%
    17:00 +25°C° 0 mm 1 mps 612 mmHg 15%
    18:00 +21°C° 0 mm 1 mps 611 mmHg 19%
    19:00 +18°C° 0 mm 1 mps 610 mmHg 24%
    20:00 +16°C° 0 mm 1 mps 610 mmHg 26%
    21:00 +15°C° 0 mm 1 mps 610 mmHg 28%
    22:00 +14°C° 0 mm 1 mps 610 mmHg 30%
    23:00 +13°C° 0 mm 1 mps 610 mmHg 32%

    26 July, Thursday

    Time Temperature Precipitation Wind Pressure Humidity
    00:00 +13°C° 0 mm 1 mps 610 mmHg 33%
    01:00 +12°C° 0 mm 1 mps 609 mmHg 34%
    02:00 +12°C° 0 mm 1 mps 609 mmHg 34%
    03:00 +12°C° 0 mm 1 mps 609 mmHg 34%
    04:00 +12°C° 0 mm 1 mps 608 mmHg 34%
    05:00 +12°C° 0 mm 1 mps 609 mmHg 34%
    06:00 +12°C° 0 mm 1 mps 609 mmHg 33%
    07:00 +12°C° 0 mm 1 mps 610 mmHg 33%
    08:00 +16°C° 0 mm 2 mps 611 mmHg 27%
    09:00 +19°C° 0 mm 2 mps 613 mmHg 21%
    10:00 +24°C° 0 mm 2 mps 614 mmHg 15%
    11:00 +25°C° 0 mm 2 mps 614 mmHg 14%
    12:00 +26°C° 0 mm 2 mps 614 mmHg 13%
    13:00 +28°C° 0 mm 3 mps 614 mmHg 12%
    14:00 +27°C° 0 mm 3 mps 613 mmHg 14%
    15:00 +26°C° 0 mm 3 mps 613 mmHg 17%
    16:00 +25°C° 0 mm 3 mps 612 mmHg 19%
    17:00 +21°C° 0 mm 3 mps 611 mmHg 31%
    18:00 +18°C° 0 mm 2 mps 611 mmHg 43%
    19:00 +14°C° 0 mm 2 mps 610 mmHg 56%
    20:00 +13°C° 0 mm 1 mps 610 mmHg 63%
    21:00 +12°C° 0 mm 1 mps 610 mmHg 70%
    22:00 +11°C° 0 mm 1 mps 610 mmHg 77%
    23:00 +11°C° 0 mm 1 mps 610 mmHg 77%

    27 July, Friday

    Time Temperature Precipitation Wind Pressure Humidity
    00:00 +11°C° 0 mm 1 mps 609 mmHg 77%
    01:00 +11°C° 0 mm 1 mps 609 mmHg 77%
    02:00 +10°C° 0 mm 1 mps 609 mmHg 76%
    03:00 +10°C° 0 mm 1 mps 608 mmHg 76%
    04:00 +10°C° 0 mm 1 mps 608 mmHg 75%
    05:00 +10°C° 0 mm 1 mps 609 mmHg 71%
    06:00 +10°C° 0 mm 1 mps 609 mmHg 67%
    07:00 +10°C° 0 mm 1 mps 609 mmHg 63%
    08:00 +14°C° 0 mm 1 mps 611 mmHg 49%
    09:00 +19°C° 0 mm 1 mps 613 mmHg 35%
    10:00 +23°C° 0 mm 1 mps 615 mmHg 21%
    11:00 +25°C° 0 mm 1 mps 614 mmHg 19%
    12:00 +26°C° 0 mm 1 mps 614 mmHg 17%
    13:00 +28°C° 0 mm 2 mps 614 mmHg 14%
    14:00 +27°C° 0 mm 2 mps 613 mmHg 15%
    15:00 +26°C° 0 mm 2 mps 613 mmHg 16%
    16:00 +26°C° 0 mm 3 mps 612 mmHg 17%
    17:00 +23°C° 0 mm 2 mps 611 mmHg 26%
    18:00 +18°C° 0 mm 2 mps 611 mmHg 35%
    19:00 +15°C° 0 mm 2 mps 610 mmHg 43%
    20:00 +14°C° 0 mm 1 mps 610 mmHg 48%
    21:00 +13°C° 0 mm 1 mps 610 mmHg 52%
    22:00 +12°C° 0 mm 1 mps 610 mmHg 56%
    23:00 +12°C° 0 mm 1 mps 610 mmHg 56%
    Show more